Weather Roundup
Issued by NWS Chicago, IL

Home | Current Version | Previous Version | Text Only | Print | Product List | Glossary On
Versions: 1 2 3 4 5 6 7 8 9 10 11 12 13 14 15 16 17 18 19 20 21 22 23 24 25 26 27 28 29 30 31 32 33 34 35 36 37 38 39 40 41 42 43 44 45 46 47 48 49 50
000
NZUS59 KLOT 011512
HRRLOT

CHICAGO AREA WEATHER ROUNDUP
NATIONAL WEATHER SERVICE CHICAGO/ROMEOVILLE IL
1000 AM CDT WED JUL 01 2015

NOTE: "FAIR" INDICATES FEW OR NO CLOUDS BELOW 12,000 FEET WITH NO
SIGNIFICANT WEATHER AND/OR OBSTRUCTIONS TO VISIBILITY.

* THESE STATIONS ARE NOT UNDER NWS QUALITY CONTROL. THEY ALSO MAY NOT
  REPORT WEATHER SUCH AS PRECIPITATION OR FOG.

ILZ005-006-012>014-019>023-011600-
NORTHEAST ILLINOIS

CITY           SKY/WX    TMP DP  RH WIND       PRES   REMARKS
OHARE          PTSUNNY   63  53  70 NE6       29.97S
MIDWAY         CLOUDY    63  54  72 NE5       29.97S
AURORA         PTSUNNY   64  54  69 NE9       29.97S
LANSING*       PTSUNNY   62  51  66 NE8       29.97S
JOLIET*        CLOUDY    65  57  75 NE6       29.97S
WAUKEGAN       PTSUNNY   62  53  72 VRB3      29.97S
DUPAGE AIRPORT CLOUDY    63  54  72 NE6       29.97R
WHEELING       PTSUNNY   63  53  70 N7        29.99R
KANKAKEE*      PTSUNNY   64  58  79 NE7       29.96F
MORRIS*        PTSUNNY   64  56  74 NE5       29.95S
LEWIS AIRPORT* PTSUNNY   64  54  70 NE6       29.97S
NORTHERLY IS     N/A     59  52  77 NE7         N/A
$$

WIZ051-052-058>065-066-070>072-011600-
SOUTHEAST WISCONSIN

CITY           SKY/WX    TMP DP  RH WIND       PRES   REMARKS
MILWAUKEE      MOSUNNY   61  49  64 NE10      29.97F
KENOSHA*       MOSUNNY   63  51  65 N6        29.98R
RACINE*        SUNNY     62  47  57 N12       29.99S
BURLINGTON     PTSUNNY   60  53  75 NW6       29.97S
WAUKESHA       MOSUNNY   59  48  67 N5        29.98S
WEST BEND      SUNNY     59  46  63 W7        29.97F
$$

INZ001>003-010>013-019-020-011600-
NORTHWEST INDIANA

CITY           SKY/WX    TMP DP  RH WIND       PRES   REMARKS
GARY*          PTSUNNY   63  54  72 NE8       29.98R
MICHIGAN CITY* NOT AVBL
RENSSELAER*    NOT AVBL
VALPARAISO     CLOUDY    64  54  69 N6        29.98R
$$

LMZ740>746-011600-
SOUTHERN LAKE MICHIGAN

STATION/POSITION TIME  SKY/WX   TEMP WIND        PRES    VSBY
                                AIR  DIR/SP/G
                 (UTC)          (F)  (DEG/KT/KT) (MB)    (MI)
HARRISON CRIB    1400            56  360/  9/ 10   N/A
BURNHAM HARBOR   1500            59   50/  6/  8   N/A
CALUMET HARBOR   1400            58  350/  6/  8   N/A
BURNS HARBOR     1400            58   10/  9/ 11 1015.2S
MICHIGAN CITY    1400            58  340/  9/ 12   N/A
$$

ABBREVIATIONS USED IN REMARKS
   TC - TEMPERATURE IN CELSIUS
  WCI - WIND CHILL INDEX
   HX - HEAT INDEX
  VSB - VISIBILITY
$$



USA.gov is the U.S. government's official web portal to all federal, state and local government web resources and services.